Dades meteomassalio
Diari Summary for Agost 7, 2017 Units:  Metric    English   Both
« Previous Day
Next Day »
Diari Semanal Mensual Anual Personalitzat
  Maxima: Minima: Mijana:
Temperatura: -17.8 °C -6.6 °C -2.4 °C
Rosada: -17.8 °C -8.3 °C -7 °C
Humitat: Humidity % 40 % 62 %
Velocitat del vent: 0 km/h 0 km/h 18 km/h
Racha vent: 0 km/h - -
Vent:- - ESE
Pressio: 0 hPa 34086.9 hPa -
Pluja: 0 mm    
Historical Graphs
 
 
Tabular Data for Agost 7, 2017
Time Temperature Dew Point Pressure Wind Wind Speed Wind Gust Humidity Rainfall Rate (Hourly) solar Conditions
-17.8 °C -17.8 °C 0 hPa Calm     Humidity % 0 mm SolarRadiationWatts/m^2 W/m2 Conditions
00:01 -3.6 °C -7.1 °C 34371.3 hPa Calm     68 % 0 mm 0.0 W/m2 CLR
00:06 -3.6 °C -7.1 °C 34384.8 hPa Calm     68 % 0 mm 0.0 W/m2 CLR
00:11 -3.6 °C -7.1 °C 34371.3 hPa Calm     68 % 0 mm 0.0 W/m2 CLR
00:16 -3.6 °C -7.1 °C 34361.1 hPa ESE 15 km/h 15 km/h 68 % 0 mm 0.0 W/m2 CLR
00:21 -3.7 °C -7.2 °C 34371.3 hPa SE 9 km/h 9 km/h 68 % 0 mm 0.0 W/m2 CLR
00:26 -3.7 °C -7.2 °C 34371.3 hPa Calm     68 % 0 mm 0.0 W/m2 CLR
00:31 -3.7 °C -7.1 °C 34371.3 hPa Calm     69 % 0 mm 0.0 W/m2 CLR
00:36 -3.7 °C -7.1 °C 34371.3 hPa SE 9 km/h 9 km/h 69 % 0 mm 0.0 W/m2 CLR
00:41 -3.7 °C -7.2 °C 34371.3 hPa SE 12.9 km/h 12.9 km/h 68 % 0 mm 0.0 W/m2 CLR
00:46 -3.7 °C -7.2 °C 34371.3 hPa SSE 11.9 km/h 11.9 km/h 68 % 0 mm 0.0 W/m2 CLR
00:51 -3.7 °C -7.1 °C 34361.1 hPa South 9 km/h 9 km/h 69 % 0 mm 0.0 W/m2 CLR
00:56 -3.7 °C -7.1 °C 34371.3 hPa Calm     69 % 0 mm 0.0 W/m2 CLR
01:01 -3.8 °C -7.2 °C 34371.3 hPa SE 15 km/h 15 km/h 69 % 0 mm 0.0 W/m2 CLR
01:06 -3.8 °C -7.2 °C 34371.3 hPa Calm     69 % 0 mm 0.0 W/m2 CLR
01:11 -3.8 °C -7.2 °C 34371.3 hPa Calm     69 % 0 mm 0.0 W/m2 CLR
01:16 -3.8 °C -7.2 °C 34371.3 hPa Calm     69 % 0 mm 0.0 W/m2 CLR
01:21 -3.8 °C -7.1 °C 34371.3 hPa Calm     70 % 0 mm 0.0 W/m2 CLR
01:26 -3.9 °C -7.1 °C 34371.3 hPa SSE 11.9 km/h 11.9 km/h 70 % 0 mm 0.0 W/m2 CLR
01:31 -3.9 °C -7.1 °C 34371.3 hPa Calm     70 % 0 mm 0.0 W/m2 CLR
01:36 -3.9 °C -7.2 °C 34371.3 hPa Calm     70 % 0 mm 0.0 W/m2 CLR
01:41 -3.9 °C -7.2 °C 34371.3 hPa Calm     70 % 0 mm 0.0 W/m2 CLR
01:46 -3.9 °C -7.2 °C 34371.3 hPa Calm     70 % 0 mm 0.0 W/m2 CLR
01:51 -4 °C -7.2 °C 34371.3 hPa Calm     70 % 0 mm 0.0 W/m2 CLR
01:56 -4 °C -7.1 °C 34371.3 hPa Calm     71 % 0 mm 0.0 W/m2 CLR
02:01 -4.1 °C -7.2 °C 34371.3 hPa Calm     71 % 0 mm 0.0 W/m2 CLR
02:06 -4.1 °C -7.2 °C 34371.3 hPa Calm     71 % 0 mm 0.0 W/m2 CLR
02:11 -4.1 °C -7.3 °C 34361.1 hPa Calm     71 % 0 mm 0.0 W/m2 CLR
02:16 -4.2 °C -7.2 °C 34371.3 hPa Calm     72 % 0 mm 0.0 W/m2 CLR
02:17 -4.2 °C -7.2 °C 34371.3 hPa Calm     72 % 0 mm 0.0 W/m2 CLR
02:22 -4.3 °C -7.3 °C 34361.1 hPa Calm     72 % 0 mm 0.0 W/m2 CLR
02:32 -4.3 °C -7.2 °C 34361.1 hPa Calm     73 % 0 mm 0.0 W/m2 CLR
02:37 -4.4 °C -7.3 °C 34361.1 hPa Calm     73 % 0 mm 0.0 W/m2 CLR
02:42 -4.4 °C -7.3 °C 34361.1 hPa Calm     73 % 0 mm 0.0 W/m2 CLR
02:47 -4.6 °C -7.3 °C 34361.1 hPa Calm     74 % 0 mm 0.0 W/m2 CLR
02:57 -4.7 °C -7.3 °C 34361.1 hPa Calm     75 % 0 mm 0.0 W/m2 CLR
03:02 -4.7 °C -7.3 °C 34361.1 hPa Calm     75 % 0 mm 0.0 W/m2 CLR
03:07 -4.8 °C -7.4 °C 34361.1 hPa Calm     75 % 0 mm 0.0 W/m2 CLR
03:12 -4.8 °C -7.4 °C 34361.1 hPa Calm     75 % 0 mm 0.0 W/m2 CLR
03:17 -4.8 °C -7.4 °C 34361.1 hPa Calm     75 % 0 mm 0.0 W/m2 CLR
03:22 -4.8 °C -7.4 °C 34361.1 hPa Calm     75 % 0 mm 0.0 W/m2 CLR
03:27 -4.8 °C -7.3 °C 34347.6 hPa Calm     76 % 0 mm 0.0 W/m2 CLR
03:32 -4.8 °C -7.3 °C 34361.1 hPa Calm     76 % 0 mm 0.0 W/m2 CLR
03:37 -4.9 °C -7.3 °C 34361.1 hPa Calm     76 % 0 mm 0.0 W/m2 CLR
03:47 -4.9 °C -7.4 °C 34347.6 hPa Calm     76 % 0 mm 0.0 W/m2 CLR
03:52 -5 °C -7.4 °C 34347.6 hPa Calm     76 % 0 mm 0.0 W/m2 CLR
03:57 -5.1 °C -7.6 °C 34347.6 hPa Calm     76 % 0 mm 0.0 W/m2 CLR
04:02 -5.1 °C -7.4 °C 34347.6 hPa Calm     77 % 0 mm 0.0 W/m2 CLR
04:07 -5.2 °C -7.4 °C 34347.6 hPa Calm     78 % 0 mm 0.0 W/m2 CLR
04:12 -5.2 °C -7.6 °C 34347.6 hPa Calm     77 % 0 mm 0.0 W/m2 CLR
04:17 -5.3 °C -7.6 °C 34347.6 hPa Calm     77 % 0 mm 0.0 W/m2 CLR
04:22 -5.4 °C -7.7 °C 34337.4 hPa Calm     77 % 0 mm 0.0 W/m2 CLR
04:27 -5.4 °C -7.8 °C 34337.4 hPa Calm     77 % 0 mm 0.0 W/m2 CLR
04:32 -5.4 °C -7.8 °C 34347.6 hPa Calm     77 % 0 mm 0.0 W/m2 CLR
04:37 -5.5 °C -7.7 °C 34337.4 hPa Calm     78 % 0 mm 0.0 W/m2 CLR
04:42 -5.6 °C -7.8 °C 34337.4 hPa Calm     78 % 0 mm 0.0 W/m2 CLR
04:47 -5.6 °C -7.8 °C 34337.4 hPa Calm     78 % 0 mm 0.0 W/m2 CLR
04:57 -5.7 °C -7.9 °C 34337.4 hPa Calm     78 % 0 mm 0.0 W/m2 CLR
05:02 -5.8 °C -7.9 °C 34337.4 hPa Calm     79 % 0 mm 0.0 W/m2 CLR
05:09 -5.8 °C -7.9 °C 34337.4 hPa Calm     79 % 0 mm 0.0 W/m2 CLR
05:14 -5.9 °C -7.9 °C 34337.4 hPa Calm     80 % 0 mm 0.0 W/m2 CLR
05:19 -5.9 °C -7.9 °C 34337.4 hPa Calm     80 % 0 mm 0.0 W/m2 CLR
05:20 -5.9 °C -7.9 °C 34337.4 hPa Calm     80 % 0 mm 0.0 W/m2 CLR
05:25 -6 °C -8 °C 34337.4 hPa Calm     80 % 0 mm 0.0 W/m2 CLR
05:29 -6 °C -7.9 °C 34337.4 hPa Calm     81 % 0 mm 0.0 W/m2 CLR
05:35 -6.1 °C -7.9 °C 34337.4 hPa Calm     81 % 0 mm 0.0 W/m2 CLR
05:40 -6.1 °C -7.8 °C 34327.3 hPa Calm     82 % 0 mm 0.0 W/m2 CLR
05:45 -6.1 °C -7.9 °C 34327.3 hPa Calm     81 % 0 mm 0.0 W/m2 CLR
05:50 -6.2 °C -8 °C 34327.3 hPa Calm     81 % 0 mm 0.0 W/m2 CLR
05:56 -6.2 °C -8.1 °C 34327.3 hPa Calm     81 % 0 mm 0.0 W/m2 CLR
06:01 -6.2 °C -8.1 °C 34327.3 hPa Calm     81 % 0 mm 0.0 W/m2 CLR
06:06 -6.2 °C -8 °C 34327.3 hPa Calm     82 % 0 mm 0.0 W/m2 CLR
06:11 -6.2 °C -8 °C 34337.4 hPa Calm     82 % 0 mm 0.0 W/m2 CLR
06:16 -6.3 °C -8.2 °C 34337.4 hPa Calm     81 % 0 mm 0.0 W/m2 CLR
06:21 -6.3 °C -8.1 °C 34337.4 hPa Calm     82 % 0 mm 0.0 W/m2 CLR
06:26 -6.4 °C -8.2 °C 34337.4 hPa Calm     82 % 0 mm 0.0 W/m2 CLR
06:31 -6.4 °C -8.2 °C 34337.4 hPa Calm     82 % 0 mm 0.0 W/m2 CLR
06:36 -6.4 °C -8.2 °C 34337.4 hPa Calm     82 % 0 mm 0.0 W/m2 CLR
06:41 -6.5 °C -8.2 °C 34337.4 hPa Calm     82 % 0 mm 0.0 W/m2 CLR
06:46 -6.5 °C -8.2 °C 34337.4 hPa Calm     82 % 0 mm 0.0 W/m2 CLR
06:51 -6.5 °C -8.2 °C 34337.4 hPa Calm     83 % 0 mm 0.0 W/m2 CLR
06:56 -6.5 °C -8.2 °C 34337.4 hPa Calm     83 % 0 mm 0.0 W/m2 CLR
07:01 -6.5 °C -8.2 °C 34337.4 hPa Calm     83 % 0 mm 0.0 W/m2 OVC
07:06 -6.6 °C -8.2 °C 34337.4 hPa Calm     83 % 0 mm 5.0 W/m2 OVC
07:11 -6.6 °C -8.2 °C 34337.4 hPa Calm     83 % 0 mm 9.0 W/m2 BKN
07:16 -6.6 °C -8.3 °C 34337.4 hPa Calm     83 % 0 mm 12.0 W/m2 BKN
07:21 -6.6 °C -8.3 °C 34347.6 hPa Calm     83 % 0 mm 16.0 W/m2 BKN
07:26 -6.6 °C -8.2 °C 34347.6 hPa Calm     84 % 0 mm 19.0 W/m2 BKN
07:31 -6.6 °C -8.1 °C 34347.6 hPa Calm     84 % 0 mm 25.0 W/m2 BKN
07:36 -6.5 °C -8.2 °C 34347.6 hPa Calm     83 % 0 mm 32.0 W/m2 BKN
07:41 -6.4 °C -8.1 °C 34347.6 hPa Calm     83 % 0 mm 39.0 W/m2 BKN
07:46 -6.3 °C -7.9 °C 34347.6 hPa Calm     83 % 0 mm 42.0 W/m2 BKN
07:51 -6.2 °C -7.9 °C 34347.6 hPa Calm     82 % 0 mm 58.0 W/m2 SCT
07:56 -6.1 °C -7.8 °C 34347.6 hPa Calm     82 % 0 mm 70.0 W/m2 FEW
08:01 -5.9 °C -7.8 °C 34347.6 hPa Calm     81 % 0 mm 83.0 W/m2 FEW
08:06 -5.9 °C -7.9 °C 34347.6 hPa Calm     80 % 0 mm 95.0 W/m2 FEW
08:11 -5.8 °C -7.8 °C 34347.6 hPa Calm     80 % 0 mm 109.0 W/m2 CLR
08:16 -5.7 °C -7.8 °C 34347.6 hPa Calm     79 % 0 mm 127.0 W/m2 CLR
08:21 -5.6 °C -7.8 °C 34347.6 hPa Calm     78 % 0 mm 142.0 W/m2 CLR
08:26 -5.4 °C -7.8 °C 34347.6 hPa Calm     77 % 0 mm 156.0 W/m2 CLR
08:31 -5.3 °C -7.8 °C 34347.6 hPa WSW 9 km/h 9 km/h 76 % 0 mm 174.0 W/m2 CLR
08:36 -5.2 °C -7.8 °C 34347.6 hPa SW 9 km/h 9 km/h 75 % 0 mm 186.0 W/m2 CLR
08:41 -5.1 °C -7.8 °C 34347.6 hPa Calm     74 % 0 mm 206.0 W/m2 CLR
08:46 -4.9 °C -7.7 °C 34347.6 hPa Calm     74 % 0 mm 221.0 W/m2 CLR
08:51 -4.8 °C -7.6 °C 34347.6 hPa Calm     73 % 0 mm 237.0 W/m2 CLR
08:56 -4.6 °C -7.6 °C 34347.6 hPa Calm     71 % 0 mm 250.0 W/m2 CLR
09:01 -4.4 °C -7.5 °C 34347.6 hPa Calm     71 % 0 mm 267.0 W/m2 CLR
09:06 -4.2 °C -7.4 °C 34337.4 hPa Calm     70 % 0 mm 285.0 W/m2 CLR
09:11 -4.1 °C -7.3 °C 34337.4 hPa Calm     70 % 0 mm 301.0 W/m2 CLR
09:12 -4.1 °C -7.3 °C 34337.4 hPa Calm     70 % 0 mm 304.0 W/m2 CLR
09:17 -3.8 °C -7.2 °C 34337.4 hPa Calm     69 % 0 mm 318.0 W/m2 CLR
09:23 -3.7 °C -7.2 °C 34337.4 hPa Calm     68 % 0 mm 338.0 W/m2 CLR
09:28 -3.6 °C -7.1 °C 34337.4 hPa Calm     68 % 0 mm 352.0 W/m2 CLR
09:33 -3.4 °C -6.9 °C 34337.4 hPa Calm     68 % 0 mm 366.0 W/m2 CLR
09:38 -3.2 °C -6.9 °C 34327.3 hPa Calm     67 % 0 mm 181.0 W/m2 CLR
09:43 -3 °C -6.8 °C 34327.3 hPa Calm     66 % 0 mm 186.0 W/m2 CLR
09:48 -2.9 °C -6.8 °C 34327.3 hPa Calm     65 % 0 mm 415.0 W/m2 CLR
09:58 -2.4 °C -6.8 °C 34327.3 hPa Calm     62 % 0 mm 443.0 W/m2 CLR
10:03 -2.3 °C -6.7 °C 34327.3 hPa Calm     62 % 0 mm 461.0 W/m2 CLR
10:08 -2.2 °C -6.6 °C 34313.7 hPa ENE 9 km/h 9 km/h 62 % 0 mm 476.0 W/m2 CLR
10:13 -2.2 °C -6.6 °C 34313.7 hPa ENE 10.3 km/h 10.3 km/h 62 % 0 mm 492.0 W/m2 CLR
10:18 -2.2 °C -6.6 °C 34313.7 hPa ENE 11.9 km/h 11.9 km/h 62 % 0 mm 506.0 W/m2 CLR
10:23 -2.1 °C -6.5 °C 34313.7 hPa NNE 11.9 km/h 11.9 km/h 62 % 0 mm 519.0 W/m2 CLR
10:28 -1.9 °C -6.7 °C 34313.7 hPa ENE 3.1 km/h   60 % 0 mm 534.0 W/m2 CLR
10:33 -1.9 °C -6.7 °C 34303.6 hPa NE 18.2 km/h 18.2 km/h 60 % 0 mm 548.0 W/m2 CLR
10:38 -1.9 °C -6.6 °C 34303.6 hPa NNE 11.9 km/h 11.9 km/h 61 % 0 mm 561.0 W/m2 CLR
10:43 -1.8 °C -6.5 °C 34303.6 hPa NE 6 km/h 6 km/h 60 % 0 mm 578.0 W/m2 CLR
10:48 -1.6 °C -6.4 °C 34303.6 hPa NE 23.8 km/h 23.8 km/h 59 % 0 mm 592.0 W/m2 CLR
10:53 -1.5 °C -6.6 °C 34303.6 hPa ENE 23.3 km/h 23.3 km/h 58 % 0 mm 605.0 W/m2 CLR
10:58 -1.5 °C -6.6 °C 34303.6 hPa NE 20.9 km/h 20.9 km/h 58 % 0 mm 615.0 W/m2 CLR
11:03 -1.3 °C -6.6 °C 34303.6 hPa ENE 17.9 km/h 17.9 km/h 57 % 0 mm 628.0 W/m2 CLR
11:08 -1.3 °C -7.1 °C 34303.6 hPa SE 11.9 km/h 11.9 km/h 54 % 0 mm 640.0 W/m2 CLR
11:13 -1.4 °C -6.8 °C 34303.6 hPa ESE 10.3 km/h 10.3 km/h 56 % 0 mm 652.0 W/m2 CLR
11:18 -1.3 °C -6.7 °C 34303.6 hPa ENE 6 km/h 6 km/h 56 % 0 mm 668.0 W/m2 CLR
11:23 -1.2 °C -6.7 °C 34303.6 hPa Calm     55 % 0 mm 675.0 W/m2 CLR
11:28 -0.9 °C -6.6 °C 34293.4 hPa Calm     54 % 0 mm 686.0 W/m2 CLR
11:33 -0.7 °C -6.5 °C 34293.4 hPa ENE 9 km/h 9 km/h 54 % 0 mm 696.0 W/m2 CLR
11:38 -0.6 °C -6.6 °C 34293.4 hPa ENE 17.9 km/h 17.9 km/h 53 % 0 mm 712.0 W/m2 CLR
11:43 -0.6 °C -6.7 °C 34293.4 hPa NE 15 km/h 15 km/h 52 % 0 mm 719.0 W/m2 CLR
11:48 -0.4 °C -7.1 °C 34293.4 hPa SE 15 km/h 15 km/h 49 % 0 mm 733.0 W/m2 CLR
11:53 -0.6 °C -7.4 °C 34293.4 hPa Calm     48 % 0 mm 742.0 W/m2 CLR
11:58 -0.5 °C -6.8 °C 34293.4 hPa Calm     51 % 0 mm 738.0 W/m2 CLR
12:03 -0.4 °C -6.9 °C 34293.4 hPa East 17.9 km/h 17.9 km/h 50 % 0 mm 752.0 W/m2 CLR
12:08 -0.3 °C -6.8 °C 34293.4 hPa NE 20.9 km/h 20.9 km/h 50 % 0 mm 765.0 W/m2 CLR
12:13 -0.2 °C -6.9 °C 34293.4 hPa ESE 6 km/h 6 km/h 49 % 0 mm 779.0 W/m2 CLR
12:18 -0.1 °C -6.7 °C 34293.4 hPa Calm     49 % 0 mm 788.0 W/m2 CLR
12:23 0.1 °C -6.8 °C 34279.9 hPa NE 17.9 km/h 17.9 km/h 48 % 0 mm 793.0 W/m2 CLR
12:28 0.2 °C -7.1 °C 34279.9 hPa NE 7.7 km/h 7.7 km/h 46 % 0 mm 800.0 W/m2 CLR
12:33 0.2 °C -7.3 °C 34279.9 hPa Calm     45 % 0 mm 810.0 W/m2 CLR
12:38 0.1 °C -7.3 °C 34279.9 hPa ENE 15 km/h 15 km/h 45 % 0 mm 817.0 W/m2 CLR
12:43 0.3 °C -7.6 °C 34279.9 hPa ENE 20.8 km/h 20.8 km/h 43 % 0 mm 824.0 W/m2 CLR
12:48 0.4 °C -7.5 °C 34269.7 hPa Calm     43 % 0 mm 831.0 W/m2 CLR
12:53 0.7 °C -7.7 °C 34269.7 hPa East 15 km/h 15 km/h 41 % 0 mm 837.0 W/m2 CLR
12:58 0.8 °C -7.8 °C 34269.7 hPa ENE 15 km/h 15 km/h 40 % 0 mm 840.0 W/m2 CLR
13:03 0.8 °C -7.1 °C 34256.2 hPa ENE 20.9 km/h 20.9 km/h 43 % 0 mm 846.0 W/m2 CLR
13:08 0.8 °C -7.3 °C 34256.2 hPa ENE 17.9 km/h 17.9 km/h 42 % 0 mm 853.0 W/m2 CLR
13:13 0.9 °C -7.2 °C 34256.2 hPa East 15 km/h 15 km/h 42 % 0 mm 858.0 W/m2 CLR
13:18 1.1 °C -6.9 °C 34256.2 hPa ENE 18.2 km/h 18.2 km/h 43 % 0 mm 856.0 W/m2 CLR
13:23 1.1 °C -6.9 °C 34246 hPa East 9 km/h 9 km/h 43 % 0 mm 870.0 W/m2 CLR
13:28 1 °C -6.9 °C 34246 hPa ENE 12.9 km/h 12.9 km/h 43 % 0 mm 865.0 W/m2 CLR
13:33 0.9 °C -6.9 °C 34246 hPa East 32.8 km/h 32.8 km/h 44 % 0 mm 863.0 W/m2 CLR
13:38 0.8 °C -6.7 °C 34235.8 hPa East 20.9 km/h 20.9 km/h 45 % 0 mm 877.0 W/m2 CLR
13:43 0.7 °C -6.8 °C 34235.8 hPa East 26.9 km/h 26.9 km/h 45 % 0 mm 900.0 W/m2 CLR
13:44 0.7 °C -6.8 °C 34235.8 hPa ENE 20.9 km/h 20.9 km/h 45 % 0 mm 904.0 W/m2 CLR
13:49 0.6 °C -6.7 °C 34235.8 hPa ENE 26.9 km/h 26.9 km/h 46 % 0 mm 874.0 W/m2 CLR
13:54 0.6 °C -6.6 °C 34235.8 hPa ESE 33.6 km/h 33.6 km/h 47 % 0 mm 255.0 W/m2 CLR
13:59 0.3 °C -6.6 °C 34235.8 hPa SSE 47.6 km/h 47.6 km/h 48 % 0 mm 221.0 W/m2 CLR
14:04 0.3 °C -6.6 °C 34222.3 hPa SE 44.7 km/h 44.7 km/h 48 % 0 mm 900.0 W/m2 CLR
14:09 0.4 °C -6.6 °C 34222.3 hPa East 32.8 km/h 32.8 km/h 47 % 0 mm 888.0 W/m2 CLR
14:14 0.4 °C -6.6 °C 34222.3 hPa ESE 35.7 km/h 35.7 km/h 47 % 0 mm 868.0 W/m2 CLR
14:19 0.6 °C -6.6 °C 34222.3 hPa ESE 47.6 km/h 47.6 km/h 47 % 0 mm 898.0 W/m2 CLR
14:24 0.5 °C -6.6 °C 34212.1 hPa SE 50.7 km/h 50.7 km/h 47 % 0 mm 946.0 W/m2 CLR
14:29 0.6 °C -6.3 °C 34212.1 hPa SE 44.7 km/h 44.7 km/h 48 % 0 mm 888.0 W/m2 CLR
14:34 0.6 °C -6.3 °C 34212.1 hPa ESE 35.7 km/h 35.7 km/h 48 % 0 mm 909.0 W/m2 CLR
14:39 0.6 °C -6.3 °C 34198.6 hPa East 38.8 km/h 38.8 km/h 48 % 0 mm 928.0 W/m2 CLR
14:44 0.4 °C -6.3 °C 34198.6 hPa East 50.7 km/h 50.7 km/h 49 % 0 mm 891.0 W/m2 CLR
14:49 0.5 °C -6.2 °C 34198.6 hPa ESE 53.6 km/h 53.6 km/h 49 % 0 mm 932.0 W/m2 CLR
14:54 0.7 °C -6.4 °C 34198.6 hPa SE 47.6 km/h 47.6 km/h 47 % 0 mm 861.0 W/m2 CLR
14:59 0.9 °C -6 °C 34198.6 hPa SE 41.7 km/h 41.7 km/h 48 % 0 mm 849.0 W/m2 CLR
15:04 0.9 °C -6.6 °C 34188.4 hPa ESE 41.7 km/h 41.7 km/h 45 % 0 mm 865.0 W/m2 CLR
15:09 0.8 °C -6.6 °C 34188.4 hPa ESE 38.8 km/h 38.8 km/h 46 % 0 mm 842.0 W/m2 CLR
15:14 0.8 °C -6.3 °C 34188.4 hPa ESE 35.7 km/h 35.7 km/h 47 % 0 mm 867.0 W/m2 CLR
15:19 0.7 °C -6.4 °C 34188.4 hPa East 33.6 km/h 33.6 km/h 47 % 0 mm 919.0 W/m2 CLR
15:24 0.6 °C -6.3 °C 34178.3 hPa East 44.7 km/h 44.7 km/h 48 % 0 mm 835.0 W/m2 CLR
15:29 0.6 °C -6.3 °C 34178.3 hPa ESE 47.6 km/h 47.6 km/h 48 % 0 mm 831.0 W/m2 CLR
15:39 0.4 °C -6.2 °C 34178.3 hPa ESE 56.6 km/h 56.6 km/h 50 % 0 mm 431.0 W/m2 CLR
15:44 0.3 °C -6 °C 34164.7 hPa ESE 36.2 km/h 36.2 km/h 51 % 0 mm 782.0 W/m2 CLR
15:49 0.6 °C -6 °C 34178.3 hPa ESE 59.5 km/h 59.5 km/h 50 % 0 mm 773.0 W/m2 CLR
15:59 0.2 °C -6.1 °C 34164.7 hPa ESE 62.1 km/h 62.1 km/h 51 % 0 mm 770.0 W/m2 CLR
16:04 0.3 °C -6 °C 34164.7 hPa SE 62.1 km/h 62.1 km/h 51 % 0 mm 758.0 W/m2 CLR
16:09 0.4 °C -6.2 °C 34154.6 hPa ESE 56.6 km/h 56.6 km/h 50 % 0 mm 747.0 W/m2 CLR
16:14 0.7 °C -6.1 °C 34154.6 hPa SE 57 km/h 57 km/h 49 % 0 mm 745.0 W/m2 CLR
16:19 0.7 °C -6.1 °C 34154.6 hPa SE 38.8 km/h 38.8 km/h 49 % 0 mm 735.0 W/m2 CLR
16:24 0.7 °C -6.2 °C 34154.6 hPa ESE 59.5 km/h 59.5 km/h 48 % 0 mm 490.0 W/m2 CLR
16:29 0.6 °C -6 °C 34154.6 hPa SE 53.6 km/h 53.6 km/h 50 % 0 mm 742.0 W/m2 CLR
16:34 0.7 °C -5.9 °C 34154.6 hPa ESE 47.6 km/h 47.6 km/h 50 % 0 mm 719.0 W/m2 CLR
16:39 0.5 °C -6.1 °C 34154.6 hPa SSE 53.6 km/h 53.6 km/h 50 % 0 mm 717.0 W/m2 CLR
16:44 0.4 °C -5.9 °C 34154.6 hPa ESE 56.6 km/h 56.6 km/h 51 % 0 mm 650.0 W/m2 CLR
16:49 0.3 °C -5.9 °C 34154.6 hPa ESE 57 km/h 57 km/h 52 % 0 mm 715.0 W/m2 CLR
16:54 0.2 °C -6 °C 34154.6 hPa SE 50.7 km/h 50.7 km/h 52 % 0 mm 701.0 W/m2 CLR
17:00 0.1 °C -5.9 °C 34154.6 hPa ESE 53.6 km/h 53.6 km/h 53 % 0 mm 675.0 W/m2 CLR
17:05 0.2 °C -6 °C 34154.6 hPa SE 51.8 km/h 51.8 km/h 52 % 0 mm 657.0 W/m2 CLR
17:10 0.3 °C -5.9 °C 34144.4 hPa SE 56.6 km/h 56.6 km/h 52 % 0 mm 640.0 W/m2 CLR
17:15 0.3 °C -6 °C 34144.4 hPa SE 57 km/h 57 km/h 51 % 0 mm 592.0 W/m2 CLR
17:20 0.2 °C -6 °C 34144.4 hPa ESE 53.6 km/h 53.6 km/h 52 % 0 mm 617.0 W/m2 CLR
17:25 0.1 °C -5.9 °C 34154.6 hPa ESE 59.5 km/h 59.5 km/h 53 % 0 mm 506.0 W/m2 CLR
17:30 -0.1 °C -5.8 °C 34144.4 hPa SE 59.5 km/h 59.5 km/h 54 % 0 mm 258.0 W/m2 CLR
17:35 -0.2 °C -5.9 °C 34144.4 hPa ESE 56.6 km/h 56.6 km/h 54 % 0 mm 274.0 W/m2 CLR
17:40 -0.3 °C -5.9 °C 34130.9 hPa South 44.7 km/h 44.7 km/h 55 % 0 mm 265.0 W/m2 CLR
17:45 -0.2 °C -5.8 °C 34130.9 hPa SE 35.7 km/h 35.7 km/h 55 % 0 mm 334.0 W/m2 CLR
17:50 -0.2 °C -5.8 °C 34130.9 hPa ESE 50.7 km/h 50.7 km/h 55 % 0 mm 466.0 W/m2 CLR
17:55 -0.2 °C -6 °C 34130.9 hPa ESE 62.6 km/h 62.6 km/h 54 % 0 mm 350.0 W/m2 CLR
18:00 -0.1 °C -5.9 °C 34144.4 hPa SE 35.7 km/h 36.5 km/h 54 % 0 mm 489.0 W/m2 CLR
18:05 -0.1 °C -5.9 °C 34130.9 hPa ESE 53.6 km/h 53.6 km/h 54 % 0 mm 450.0 W/m2 CLR
18:10 -0.2 °C -5.9 °C 34130.9 hPa SE 35.7 km/h 36.7 km/h 55 % 0 mm 427.0 W/m2 CLR
18:15 -0.1 °C -5.9 °C 34130.9 hPa SE 38.8 km/h 38.8 km/h 54 % 0 mm 274.0 W/m2 CLR
18:20 0.1 °C -6.1 °C 34130.9 hPa ESE 31.1 km/h 31.1 km/h 52 % 0 mm 283.0 W/m2 CLR
18:25 0 °C -6 °C 34130.9 hPa SE 26.9 km/h 26.9 km/h 53 % 0 mm 200.0 W/m2 CLR
18:30 -0.1 °C -5.9 °C 34130.9 hPa SE 35.7 km/h 35.7 km/h 54 % 0 mm 200.0 W/m2 CLR
18:35 -0.1 °C -5.9 °C 34130.9 hPa SE 38.8 km/h 38.8 km/h 54 % 0 mm 241.0 W/m2 CLR
18:40 -0.1 °C -6.1 °C 34120.7 hPa SE 38.8 km/h 38.8 km/h 53 % 0 mm 178.0 W/m2 CLR
18:45 -0.2 °C -6 °C 34130.9 hPa SSE 32.8 km/h 32.8 km/h 54 % 0 mm 158.0 W/m2 CLR
18:50 -0.2 °C -6.1 °C 34130.9 hPa SE 44.1 km/h 44.1 km/h 54 % 0 mm 144.0 W/m2 CLR
18:55 -0.3 °C -6.1 °C 34120.7 hPa SSE 33.6 km/h 33.6 km/h 54 % 0 mm 141.0 W/m2 CLR
19:00 -0.3 °C -5.9 °C 34120.7 hPa SE 29.8 km/h 29.8 km/h 55 % 0 mm 176.0 W/m2 CLR
19:05 -0.4 °C -5.9 °C 34120.7 hPa ESE 32.8 km/h 32.8 km/h 56 % 0 mm 251.0 W/m2 CLR
19:10 -0.4 °C -6 °C 34120.7 hPa ESE 26.9 km/h 26.9 km/h 55 % 0 mm 206.0 W/m2 CLR
19:15 -0.4 °C -6 °C 34120.7 hPa SE 29.8 km/h 29.8 km/h 55 % 0 mm 204.0 W/m2 CLR
19:20 -0.4 °C -6.1 °C 34120.7 hPa SE 33.6 km/h 33.6 km/h 55 % 0 mm 316.0 W/m2 CLR
19:25 -0.4 °C -5.9 °C 34120.7 hPa SE 35.7 km/h 35.7 km/h 56 % 0 mm 339.0 W/m2 CLR
19:30 -0.5 °C -5.9 °C 34120.7 hPa East 29.8 km/h 29.8 km/h 56 % 0 mm 269.0 W/m2 CLR
19:35 -0.5 °C -5.8 °C 34120.7 hPa ESE 32.8 km/h 32.8 km/h 57 % 0 mm 279.0 W/m2 CLR
19:40 -0.6 °C -5.9 °C 34120.7 hPa SSE 32.8 km/h 32.8 km/h 57 % 0 mm 229.0 W/m2 CLR
19:50 -0.6 °C -6.1 °C 34120.7 hPa SE 28.5 km/h 28.5 km/h 56 % 0 mm 137.0 W/m2 CLR
19:55 -0.6 °C -6.1 °C 34107.2 hPa SSE 29.8 km/h 29.8 km/h 56 % 0 mm 146.0 W/m2 CLR
20:00 -0.6 °C -6 °C 34107.2 hPa SSE 23.8 km/h 23.8 km/h 56 % 0 mm 156.0 W/m2 CLR
20:10 -0.6 °C -6.2 °C 34120.7 hPa SE 20.9 km/h 20.9 km/h 55 % 0 mm 142.0 W/m2 CLR
20:15 -0.6 °C -6.2 °C 34120.7 hPa ESE 18.2 km/h 18.2 km/h 55 % 0 mm 123.0 W/m2 CLR
20:20 -0.6 °C -6.2 °C 34120.7 hPa SE 17.9 km/h 17.9 km/h 55 % 0 mm 100.0 W/m2 CLR
20:25 -0.7 °C -6.1 °C 34120.7 hPa SSE 17.9 km/h 17.9 km/h 56 % 0 mm 79.0 W/m2 FEW
20:30 -0.8 °C -6.2 °C 34107.2 hPa ESE 26.9 km/h 26.9 km/h 56 % 0 mm 70.0 W/m2 FEW
20:35 -0.8 °C -6.3 °C 34107.2 hPa SE 32.8 km/h 32.8 km/h 56 % 0 mm 65.0 W/m2 SCT
20:40 -0.9 °C -6.2 °C 34107.2 hPa SE 26.9 km/h 26.9 km/h 57 % 0 mm 54.0 W/m2 SCT
20:45 -0.9 °C -6.2 °C 34107.2 hPa SE 25.9 km/h 25.9 km/h 57 % 0 mm 42.0 W/m2 BKN
20:50 -1 °C -6.2 °C 34107.2 hPa ESE 17.9 km/h 17.9 km/h 57 % 0 mm 28.0 W/m2 BKN
20:55 -1.1 °C -6.2 °C 34107.2 hPa ESE 18.2 km/h 18.2 km/h 58 % 0 mm 19.0 W/m2 BKN
21:00 -1.1 °C -6.3 °C 34107.2 hPa SSE 31.1 km/h 31.1 km/h 57 % 0 mm 14.0 W/m2 BKN
21:05 -1.1 °C -6.3 °C 34120.7 hPa SE 11.9 km/h 11.9 km/h 57 % 0 mm 9.0 W/m2 BKN
21:15 -1.2 °C -6.4 °C 34120.7 hPa SSE 44.7 km/h 44.7 km/h 57 % 0 mm 0.0 W/m2 OVC
21:20 -1.2 °C -6.4 °C 34120.7 hPa SSE 41.7 km/h 41.7 km/h 57 % 0 mm 0.0 W/m2 CLR
21:25 -1.3 °C -6.5 °C 34120.7 hPa SSE 51.8 km/h 51.8 km/h 57 % 0 mm 0.0 W/m2 CLR
21:30 -1.3 °C -6.4 °C 34120.7 hPa South 49.2 km/h 49.2 km/h 58 % 0 mm 0.0 W/m2 CLR
21:40 -1.6 °C -6.4 °C 34107.2 hPa SSE 57 km/h 57 km/h 59 % 0 mm 0.0 W/m2 CLR
21:45 -1.6 °C -6.3 °C 34120.7 hPa SSE 47.6 km/h 47.6 km/h 60 % 0 mm 0.0 W/m2 CLR
21:50 -1.6 °C -6.4 °C 34120.7 hPa South 35.7 km/h 35.7 km/h 60 % 0 mm 0.0 W/m2 CLR
21:55 -1.7 °C -6.4 °C 34120.7 hPa SSE 32.8 km/h 32.8 km/h 60 % 0 mm 0.0 W/m2 CLR
22:00 -1.6 °C -6.4 °C 34120.7 hPa SSE 23.3 km/h 23.3 km/h 60 % 0 mm 0.0 W/m2 CLR
22:05 -1.6 °C -6.4 °C 34120.7 hPa South 26.9 km/h 26.9 km/h 60 % 0 mm 0.0 W/m2 CLR
22:10 -1.6 °C -6.5 °C 34120.7 hPa SSE 29.8 km/h 29.8 km/h 59 % 0 mm 0.0 W/m2 CLR
22:15 -1.6 °C -6.4 °C 34120.7 hPa South 20.8 km/h 20.8 km/h 59 % 0 mm 0.0 W/m2 CLR
22:20 -1.5 °C -6.6 °C 34120.7 hPa South 32.8 km/h 32.8 km/h 58 % 0 mm 0.0 W/m2 CLR
22:25 -1.4 °C -6.5 °C 34120.7 hPa South 35.7 km/h 35.7 km/h 58 % 0 mm 0.0 W/m2 CLR
22:30 -1.4 °C -6.5 °C 34120.7 hPa SE 33.6 km/h 33.6 km/h 58 % 0 mm 0.0 W/m2 CLR
22:35 -1.4 °C -6.5 °C 34120.7 hPa South 33.6 km/h 33.6 km/h 58 % 0 mm 0.0 W/m2 CLR
22:40 -1.4 °C -6.5 °C 34120.7 hPa SSE 29.8 km/h 29.8 km/h 58 % 0 mm 0.0 W/m2 CLR
22:45 -1.4 °C -6.4 °C 34120.7 hPa SSW 50.7 km/h 50.7 km/h 58 % 0 mm 0.0 W/m2 CLR
22:50 -1.3 °C -6.4 °C 34120.7 hPa SSE 38.8 km/h 38.8 km/h 58 % 0 mm 0.0 W/m2 CLR
22:55 -1.2 °C -6.4 °C 34120.7 hPa SSW 32.8 km/h 32.8 km/h 57 % 0 mm 0.0 W/m2 CLR
23:00 -1.2 °C -6.7 °C 34120.7 hPa South 35.7 km/h 35.7 km/h 55 % 0 mm 0.0 W/m2 CLR
23:05 -1.1 °C -7 °C 34107.2 hPa South 47.6 km/h 47.6 km/h 53 % 0 mm 0.0 W/m2 CLR
23:10 -0.9 °C -7.2 °C 34107.2 hPa South 29.8 km/h 29.8 km/h 51 % 0 mm 0.0 W/m2 CLR
23:15 -0.9 °C -7.6 °C 34107.2 hPa South 32.8 km/h 32.8 km/h 49 % 0 mm 0.0 W/m2 CLR
23:20 -0.9 °C -7.7 °C 34107.2 hPa SSE 20.9 km/h 20.9 km/h 48 % 0 mm 0.0 W/m2 CLR
23:25 -0.9 °C -7.9 °C 34097 hPa South 15 km/h 15 km/h 47 % 0 mm 0.0 W/m2 CLR
23:30 -0.9 °C -7.9 °C 34097 hPa Calm     47 % 0 mm 0.0 W/m2 CLR
23:35 -0.9 °C -7.9 °C 34097 hPa Calm     47 % 0 mm 0.0 W/m2 CLR
23:40 -1.1 °C -8 °C 34097 hPa Calm     47 % 0 mm 0.0 W/m2 CLR
23:45 -1.1 °C -7.9 °C 34086.9 hPa Calm     48 % 0 mm 0.0 W/m2 CLR
23:50 -1.2 °C -8 °C 34086.9 hPa Calm     48 % 0 mm 0.0 W/m2 CLR
23:55 -1.3 °C -8.2 °C 34086.9 hPa Calm     47 % 0 mm 0.0 W/m2 CLR
Lo Temps de Massalio
Compliments of Weather Underground - 1.25 mb